{"data":{"norad_id":44836,"epoch":"2026-09-20T04:47:19.665024Z","epoch_age_seconds":87600,"freshness":"FRESH","line1":"1 44836U 19086A   26263.19953316  .00003638  00000+0  16389-3 0  9994","line2":"2 44836  97.4797 334.6119 0013378 354.1059   6.0017 15.21627488374930","mean_motion":15.21627488,"eccentricity":0.0013378,"inclination_deg":97.4797,"raan_deg":334.6119,"arg_perigee_deg":354.1059,"mean_anomaly_deg":6.0017,"bstar":0.00016389,"rev_number":37493,"period_min":94.635514365787,"perigee_km":491.72832098651,"apogee_km":510.13395569746,"semimajor_km":6879.068138342,"source":"CELESTRAK","updated_at":"2026-09-20T09:00:14.566727Z"}}